Mattaponi, VA

3:30 PM EST on December 06, 2016 (GMT -0500)
West Point

Weather History for KFYJ - May, 2012

Change the Weather History Date:

Sunday, May 13, 2012

  Actual Average (KJGG) Record (KJGG)
Temperature  
Mean Temperature 68 °F -  
Max Temperature 79 °F 78 °F 96 °F (2014)
Min Temperature 58 °F 54 °F 38 °F (1963)
Cooling Degree Days 4    
Growing Degree Days 18 (Base 50)    
Moisture  
Dew Point 59 °F    
Average Humidity 73    
Maximum Humidity 97    
Minimum Humidity 48    
Precipitation  
Precipitation 0.01 in - - ()
Sea Level Pressure  
Sea Level Pressure 30.22 in    
Wind  
Wind Speed 5 mph (South)    
Max Wind Speed 12 mph    
Max Gust Speed 20 mph    
Visibility 10 miles    
Events      
Averages and records for this station are not official NWS values.
T = Trace of Precipitation, MM = Missing Value Source: NWS Daily Summary

Daily Weather History Graph

Daily Weather History Graph

Search for Another Location

Airport or City:

Trip Planner

Search our weather history database for the weather conditions in past years. The results will help you decide how hot, cold, wet, or windy it might be!

Date:

Astronomy

May. 13, 2012 Rise Set
Actual Time 5:59 AM EDT 8:08 PM EDT
Civil Twilight 5:30 AM EDT 8:37 PM EDT
Nautical Twilight 4:54 AM EDT 9:13 PM EDT
Astronomical Twilight 4:15 AM EDT 9:52 PM EDT
Moon 1:55 AM EDT (5/13) 1:34 PM EDT (5/13)
Length of Visible Light 15h 07m
Length of Day
14h 09m
Last Quarter, 42% of the Moon is Illuminated
May 13
Last Quarter
May 20
New
May 28
First Quarter
Jun 4
Full
Jun 11
Last Quarter

Hourly Weather History & Observations

Time (EDT) Temp. Dew Point Humidity Pressure Visibility Wind Dir Wind Speed Gust Speed Precip Events Conditions
12:15 AM 59.4 °F 55.4 °F 87% 30.27 in 10.0 mi Calm Calm - N/A   Clear
12:35 AM 59.0 °F 55.0 °F 87% 30.27 in 10.0 mi ESE 3.5 mph - N/A   Clear
1:15 AM 58.3 °F 54.5 °F 87% 30.27 in 10.0 mi Calm Calm - N/A   Clear
1:35 AM 60.1 °F 54.7 °F 82% 30.27 in 10.0 mi SSE 3.5 mph - N/A   Clear
1:55 AM 62.1 °F 54.5 °F 76% 30.26 in 10.0 mi Calm Calm - N/A   Clear
2:15 AM 61.9 °F 54.5 °F 77% 30.26 in 10.0 mi Calm Calm - N/A   Clear
2:35 AM 62.6 °F 54.3 °F 74% 30.26 in 10.0 mi SE 3.5 mph - N/A   Clear
2:55 AM 61.7 °F 54.5 °F 77% 30.25 in 10.0 mi SE 4.6 mph - N/A   Clear
3:15 AM 61.5 °F 54.7 °F 78% 30.25 in 10.0 mi SE 5.8 mph - N/A   Clear
3:55 AM 62.1 °F 54.7 °F 77% 30.26 in 10.0 mi SE 3.5 mph - N/A   Clear
4:15 AM 61.3 °F 55.0 °F 80% 30.26 in 10.0 mi SSE 4.6 mph - N/A   Clear
4:35 AM 61.0 °F 55.2 °F 81% 30.26 in 10.0 mi SSE 4.6 mph - N/A   Clear
4:55 AM 61.5 °F 55.8 °F 81% 30.26 in 10.0 mi SSE 4.6 mph - N/A   Clear
5:15 AM 61.0 °F 55.9 °F 83% 30.26 in 10.0 mi SE 4.6 mph - N/A   Clear
5:35 AM 61.0 °F 56.3 °F 85% 30.27 in 10.0 mi ESE 4.6 mph - N/A   Clear
5:55 AM 60.3 °F 56.3 °F 87% 30.27 in 10.0 mi ESE 3.5 mph - N/A   Clear
6:15 AM 60.3 °F 56.5 °F 87% 30.27 in 10.0 mi ESE 4.6 mph - N/A   Clear
6:35 AM 60.8 °F 56.8 °F 87% 30.27 in 10.0 mi ESE 5.8 mph - N/A   Clear
6:55 AM 60.4 °F 57.2 °F 89% 30.27 in 10.0 mi ESE 5.8 mph - N/A   Clear
7:15 AM 61.5 °F 57.9 °F 88% 30.27 in 10.0 mi East 4.6 mph - N/A   Clear
7:35 AM 62.6 °F 58.8 °F 87% 30.27 in 10.0 mi East 4.6 mph - N/A   Clear
8:15 AM 66.4 °F 60.1 °F 80% 30.28 in 10.0 mi SSW 4.6 mph - N/A   Clear
8:35 AM 67.8 °F 61.0 °F 79% 30.28 in 10.0 mi SSW 4.6 mph - N/A   Clear
8:55 AM 68.4 °F 61.5 °F 79% 30.27 in 10.0 mi South 6.9 mph - N/A   Clear
9:15 AM - - N/A% - 10.0 mi North - - N/A   Clear
9:35 AM 70.7 °F 62.4 °F 75% 30.26 in 10.0 mi SSW 11.5 mph - N/A   Clear
9:55 AM 72.0 °F 62.8 °F 73% 30.26 in 10.0 mi SW 10.4 mph - N/A   Clear
10:15 AM 73.2 °F 63.3 °F 71% 30.26 in 10.0 mi SW 10.4 mph - N/A   Clear
10:35 AM 74.3 °F 63.3 °F 68% 30.25 in 10.0 mi SSW 9.2 mph - N/A   Clear
11:15 AM 76.1 °F 63.0 °F 64% 30.25 in 10.0 mi SW 11.5 mph 18.4 mph N/A   Clear
11:35 AM 76.1 °F 63.0 °F 64% 30.25 in 10.0 mi SW 11.5 mph 16.1 mph N/A   Clear
11:55 AM 77.0 °F 62.8 °F 61% 30.24 in 10.0 mi SW 10.4 mph - N/A   Clear
12:15 PM 77.0 °F 62.1 °F 60% 30.24 in 10.0 mi SW 10.4 mph - N/A   Scattered Clouds
12:35 PM 77.0 °F 62.4 °F 61% 30.23 in 10.0 mi South 8.1 mph - N/A   Scattered Clouds
1:15 PM 78.1 °F 62.8 °F 59% 30.22 in 10.0 mi WSW 10.4 mph - N/A   Scattered Clouds
1:35 PM 79.3 °F 61.9 °F 55% 30.22 in 10.0 mi SW 10.4 mph - N/A   Mostly Cloudy
1:55 PM 79.2 °F 60.6 °F 53% 30.21 in 10.0 mi SSW 9.2 mph - N/A   Scattered Clouds
2:15 PM 78.3 °F 59.9 °F 53% 30.21 in 10.0 mi SSW 9.2 mph - N/A   Scattered Clouds
2:35 PM 77.9 °F 61.3 °F 57% 30.20 in 10.0 mi South 8.1 mph - N/A   Scattered Clouds
2:55 PM 77.7 °F 60.3 °F 55% 30.20 in 10.0 mi South 6.9 mph - N/A   Scattered Clouds
3:15 PM 77.9 °F 59.9 °F 54% 30.19 in 10.0 mi South 8.1 mph - N/A   Scattered Clouds
3:35 PM 78.3 °F 58.8 °F 51% 30.19 in 10.0 mi SSE 9.2 mph - N/A   Scattered Clouds
3:55 PM 78.8 °F 57.9 °F 49% 30.18 in 10.0 mi South 8.1 mph - N/A   Scattered Clouds
4:15 PM 79.0 °F 57.7 °F 48% 30.18 in 10.0 mi SW 6.9 mph - N/A   Clear
4:35 PM 77.9 °F 58.3 °F 51% 30.17 in 10.0 mi SSW 9.2 mph - N/A   Scattered Clouds
4:55 PM 77.2 °F 58.8 °F 53% 30.17 in 10.0 mi SSW 5.8 mph - N/A   Scattered Clouds
5:15 PM 76.5 °F 58.1 °F 53% 30.17 in 10.0 mi South 8.1 mph - N/A   Mostly Cloudy
5:35 PM 75.6 °F 61.2 °F 61% 30.17 in 10.0 mi SSW 8.1 mph - N/A   Scattered Clouds
5:55 PM 74.8 °F 60.8 °F 62% 30.17 in 10.0 mi SSW 9.2 mph - N/A   Clear
6:15 PM 74.3 °F 61.0 °F 63% 30.16 in 10.0 mi SSW 6.9 mph - N/A   Clear
6:35 PM 73.6 °F 61.7 °F 66% 30.16 in 10.0 mi SSW 5.8 mph - N/A   Clear
6:55 PM 73.2 °F 61.7 °F 67% 30.16 in 10.0 mi SSW 4.6 mph - N/A   Clear
7:15 PM 72.9 °F 61.7 °F 68% 30.16 in 10.0 mi South 3.5 mph - N/A   Clear
7:35 PM 72.1 °F 62.1 °F 70% 30.16 in 10.0 mi South 3.5 mph - N/A   Clear
7:55 PM 71.4 °F 61.7 °F 71% 30.16 in 10.0 mi SSE 3.5 mph - N/A   Clear
8:15 PM 71.1 °F 61.2 °F 71% 30.16 in 10.0 mi South 4.6 mph - N/A   Clear
8:35 PM 70.9 °F 61.7 °F 73% 30.16 in 10.0 mi South 4.6 mph - N/A   Clear
8:55 PM 70.7 °F 61.5 °F 73% 30.17 in 10.0 mi South 4.6 mph - N/A   Mostly Cloudy
9:15 PM 70.3 °F 61.3 °F 73% 30.18 in 10.0 mi SSW 11.5 mph 19.6 mph N/A   Overcast
9:35 PM 68.9 °F 61.9 °F 78% 30.19 in 10.0 mi SSW 10.4 mph 16.1 mph N/A   Overcast
9:55 PM 67.3 °F 62.6 °F 85% 30.19 in 10.0 mi South 4.6 mph - N/A   Overcast
10:15 PM 66.6 °F 61.7 °F 84% 30.20 in 10.0 mi SSW 8.1 mph - N/A   Overcast
10:35 PM 64.6 °F 61.9 °F 91% 30.20 in 10.0 mi SW 8.1 mph - N/A   Overcast
10:55 PM 63.9 °F 61.9 °F 93% 30.21 in 10.0 mi SSW 4.6 mph - N/A   Overcast
11:15 PM 63.5 °F 62.2 °F 96% 30.21 in 10.0 mi South 6.9 mph - N/A   Overcast
11:35 PM 63.0 °F 61.5 °F 95% 30.20 in 10.0 mi SSW 6.9 mph - N/A   Overcast
11:55 PM 62.6 °F 61.7 °F 97% 30.20 in 10.0 mi SW 5.8 mph - 0.01 in   Overcast